| time (UTC) | temp F | wind direction | speed knots | gust knots | rain 1hr in | rain 24hr in | rain mn in | humidity % | barometer mb |
| 20260506033056 | 43 | 1 | 5.2 | 7.8 | 0.00 | 0.00 | 0.00 | 85 | 1015.7 |
| 20260506031602 | 43 | 328 | 5.2 | 8.7 | 0.00 | 0.00 | 0.00 | 84 | 1015.8 |
| 20260506030058 | 44 | 13 | 2.6 | 7.8 | 0.00 | 0.00 | 0.00 | 85 | 1015.8 |
| 20260506024601 | 44 | 338 | 4.3 | 7.8 | 0.00 | 0.00 | 0.00 | 84 | 1015.7 |
| 20260506023054 | 44 | 15 | 6.1 | 9.6 | 0.00 | 0.00 | 0.00 | 84 | 1015.7 |
| 20260506021556 | 44 | 334 | 5.2 | 9.6 | 0.00 | 0.00 | 0.00 | 84 | 1015.7 |
| 20260506020121 | 44 | 349 | 7.0 | 9.6 | 0.00 | 0.00 | 0.00 | 84 | 1015.9 |
| 20260506014612 | 45 | 339 | 4.3 | 10.4 | 0.00 | 0.00 | 0.00 | 84 | 1015.9 |
| 20260506013102 | 45 | 335 | 6.1 | 10.4 | 0.00 | 0.00 | 0.00 | 84 | 1015.9 |
| 20260506011617 | 45 | 14 | 7.8 | 12.2 | 0.00 | 0.00 | 0.00 | 84 | 1016.1 |
| 20260506010141 | 45 | 13 | 7.0 | 13.0 | 0.00 | 0.00 | 0.00 | 84 | 1015.9 |
| 20260506001609 | 45 | 22 | 6.1 | 12.2 | 0.00 | 0.00 | 0.00 | 81 | 1016.1 |
| 20260506000139 | 46 | 3 | 8.7 | 13.9 | 0.00 | 0.00 | 0.00 | 81 | 1016.0 |
| 20260505234556 | 46 | 347 | 10.4 | 16.5 | 0.00 | 0.00 | 0.00 | 80 | 1016.1 |
| 20260505233059 | 46 | 9 | 9.6 | 14.8 | 0.00 | 0.00 | 0.00 | 80 | 1016.1 |
| 20260505231612 | 46 | 5 | 10.4 | 15.6 | 0.00 | 0.00 | 0.00 | 78 | 1016.2 |
| 20260505230105 | 46 | 7 | 7.0 | 13.9 | 0.00 | 0.00 | 0.00 | 79 | 1016.1 |
| 20260505224627 | 47 | 16 | 5.2 | 11.3 | 0.00 | 0.00 | 0.00 | 78 | 1016.3 |
| 20260505223056 | 47 | 36 | 6.1 | 10.4 | 0.00 | 0.00 | 0.00 | 78 | 1016.3 |
| 20260505221600 | 47 | 27 | 6.1 | 10.4 | 0.00 | 0.00 | 0.00 | 78 | 1016.2 |
| 20260505220101 | 47 | 37 | 7.8 | 12.2 | 0.00 | 0.00 | 0.00 | 77 | 1016.4 |
| 20260505214600 | 48 | 10 | 7.8 | 13.9 | 0.00 | 0.00 | 0.00 | 79 | 1016.5 |
| 20260505213201 | 48 | 39 | 12.2 | 15.6 | 0.00 | 0.00 | 0.00 | 78 | 1016.4 |
| 20260505211557 | 48 | 40 | 10.4 | 17.4 | 0.00 | 0.00 | 0.00 | 79 | 1016.4 |
| 20260505210059 | 49 | 29 | 8.7 | 15.6 | 0.00 | 0.00 | 0.00 | 80 | 1016.4 |
| 20260505204801 | 49 | 32 | 7.8 | 11.3 | 0.00 | 0.00 | 0.00 | 79 | 1016.4 |
| 20260505203147 | 49 | 346 | 11.3 | 17.4 | 0.00 | 0.00 | 0.00 | 77 | 1016.3 |
| 20260505201555 | 50 | 39 | 13.9 | 17.4 | 0.00 | 0.00 | 0.00 | 78 | 1016.1 |
| 20260505200052 | 50 | 42 | 9.6 | 14.8 | 0.00 | 0.00 | 0.00 | 75 | 1015.9 |
| 20260505194606 | 50 | 39 | 11.3 | 13.9 | 0.00 | 0.00 | 0.00 | 75 | 1015.8 |
| 20260505193052 | 50 | 26 | 8.7 | 13.9 | 0.00 | 0.00 | 0.00 | 75 | 1015.7 |
| 20260505191606 | 50 | 10 | 12.2 | 18.2 | 0.00 | 0.00 | 0.00 | 73 | 1015.5 |
| 20260505190055 | 51 | 20 | 11.3 | 15.6 | 0.00 | 0.00 | 0.00 | 82 | 1015.4 |
| 20260505184554 | 51 | 41 | 13.0 | 15.6 | 0.00 | 0.00 | 0.00 | 81 | 1015.2 |
| 20260505183056 | 51 | 1 | 9.6 | 13.9 | 0.00 | 0.00 | 0.00 | 81 | 1015.1 |
| 20260505181557 | 52 | 39 | 10.4 | 16.5 | 0.00 | 0.00 | 0.00 | 82 | 1015.2 |
| 20260505174556 | 52 | 45 | 11.3 | 15.6 | 0.00 | 0.00 | 0.00 | 81 | 1015.2 |
| 20260505173112 | 52 | 42 | 10.4 | 14.8 | 0.00 | 0.00 | 0.00 | 79 | 1015.1 |
| 20260505171618 | 53 | 46 | 13.0 | 16.5 | 0.00 | 0.00 | 0.00 | 79 | 1015.1 |
| 20260505170056 | 53 | 39 | 14.8 | 21.7 | 0.00 | 0.00 | 0.00 | 78 | 1014.9 |
| 20260505163053 | 56 | 336 | 7.0 | 11.3 | 0.00 | 0.00 | 0.00 | 62 | 1014.6 |
| 20260505161557 | 56 | 322 | 7.8 | 11.3 | 0.00 | 0.00 | 0.00 | 62 | 1014.7 |
| 20260505153107 | 56 | 11 | 7.8 | 10.4 | 0.00 | 0.00 | 0.00 | 61 | 1014.7 |
| 20260505151601 | 56 | 352 | 8.7 | 11.3 | 0.00 | 0.00 | 0.00 | 61 | 1014.6 |
| 20260505150111 | 56 | 335 | 7.0 | 11.3 | 0.00 | 0.00 | 0.00 | 62 | 1014.5 |
| 20260505140154 | 56 | 328 | 3.5 | 6.1 | 0.00 | 0.00 | 0.00 | 61 | 1014.4 |
| 20260505124949 | 56 | 332 | 6.1 | 10.4 | 0.00 | 0.00 | 0.00 | 64 | 1014.5 |
| 20260505121624 | 56 | 328 | 5.2 | 8.7 | 0.00 | 0.00 | 0.00 | 64 | 1014.5 |
| 20260505120057 | 55 | 328 | 5.2 | 8.7 | 0.00 | 0.00 | 0.00 | 65 | 1014.6 |
| 20260505114554 | 55 | 313 | 5.2 | 7.0 | 0.00 | 0.00 | 0.00 | 68 | 1014.6 |
| 20260505113059 | 55 | 41 | 6.1 | 8.7 | 0.00 | 0.00 | 0.00 | 67 | 1014.6 |
| 20260505111555 | 55 | 3 | 3.5 | 7.0 | 0.00 | 0.00 | 0.00 | 68 | 1014.7 |
| 20260505094558 | 53 | 342 | 7.8 | 10.4 | 0.00 | 0.00 | 0.00 | 71 | 1015.2 |
| 20260505084603 | 52 | 325 | 6.1 | 10.4 | 0.00 | 0.00 | 0.00 | 76 | 1015.3 |
| 20260505061626 | 44 | 266 | 0.9 | 1.7 | 0.00 | 0.00 | 0.00 | 96 | 1015.5 |
| 20260505054920 | 43 | 266 | 0.0 | 1.7 | 0.00 | 0.00 | 0.00 | 96 | 1015.4 |
| 20260505053151 | 42 | 263 | 0.9 | 1.7 | 0.00 | 0.00 | 0.00 | 95 | 1015.3 |
| 20260505051554 | 42 | 262 | 0.9 | 2.6 | 0.00 | 0.00 | 0.00 | 96 | 1015.4 |
| 20260505041606 | 42 | 0 | 0.0 | 2.6 | 0.00 | 0.00 | 0.00 | 95 | 1015.3 |
| 20260505034554 | 44 | 0 | 0.0 | 0.9 | 0.00 | 0.00 | 0.00 | 95 | 1015.2 |